AK4NG Weather Reports


time (UTC)temp
C
wind
direction
speed
KPH
gust
KPH
rain 1hr
cm
rain 24hr
cm
rain mn
cm
humidity
%
barometer
mb
20260906154442 32 126 4.8 6.4 0.00 0.00 0.00 66 1014.1
20260906153940 32 143 1.6 1.6 0.00 0.00 0.00 68 1013.9
20260906153440 32 158 3.2 3.2 0.00 0.00 0.00 69 1014.0
20260906152935 32 148 0.0 1.6 0.00 0.00 0.00 67 1014.1
20260906152435 32 155 3.2 3.2 0.00 0.00 0.00 69 1014.1
20260906151934 32 165 1.6 3.2 0.00 0.00 0.00 67 1013.9
20260906151430 32 204 1.6 1.6 0.00 0.00 0.00 68 1014.2
20260906150925 32 168 4.8 4.8 0.00 0.00 0.00 68 1013.9
20260906150420 31 124 0.0 0.0 0.00 0.00 0.00 69 1014.0
20260906145915 31 137 3.2 3.2 0.00 0.00 0.00 70 1014.2
20260906145414 31 228 6.4 6.4 0.00 0.00 0.00 70 1014.0
20260906144909 31 129 1.6 1.6 0.00 0.00 0.00 69 1013.8
20260906144409 30 104 0.0 0.0 0.00 0.00 0.00 71 1014.0
20260906143904 30 148 1.6 1.6 0.00 0.00 0.00 72 1014.0
20260906143400 30 172 3.2 4.8 0.00 0.00 0.00 75 1013.9
20260906142856 31 173 3.2 1.6 0.00 0.00 0.00 71 1014.0
20260906142355 30 165 1.6 1.6 0.00 0.00 0.00 74 1014.0
20260906141850 30 126 1.6 1.6 0.00 0.00 0.00 75 1014.0
20260906141344 30 169 3.2 3.2 0.00 0.00 0.00 75 1013.9
20260906140844 29 131 0.0 0.0 0.00 0.00 0.00 77 1014.1
20260906140339 29 99 3.2 3.2 0.00 0.00 0.00 76 1014.2
20260906135836 28 300 3.2 3.2 0.00 0.00 0.00 79 1014.2
20260906135331 28 214 3.2 3.2 0.00 0.00 0.00 80 1014.3
20260906134827 28 146 1.6 1.6 0.00 0.00 0.00 80 1014.2
20260906134322 28 137 0.0 1.6 0.00 0.00 0.00 80 1014.1
20260906133817 28 151 1.6 1.6 0.00 0.00 0.00 81 1014.3
20260906133313 28 148 0.0 0.0 0.00 0.00 0.00 85 1014.2
20260906132808 27 148 0.0 0.0 0.00 0.00 0.00 85 1014.2
20260906132306 27 152 0.0 0.0 0.00 0.00 0.00 88 1014.3
20260906131758 26 152 0.0 0.0 0.00 0.00 0.00 88 1014.3
20260906131253 26 128 0.0 0.0 0.00 0.00 0.00 90 1014.2
20260906130749 26 134 0.0 0.0 0.00 0.00 0.00 92 1014.2
20260906130244 25 144 0.0 0.0 0.00 0.00 0.00 95 1014.0
20260906125743 25 145 0.0 0.0 0.00 0.00 0.00 98 1014.1
20260906125241 25 313 0.0 0.0 0.00 0.00 0.00 99 1014.0
20260906124741 24 313 1.6 1.6 0.00 0.00 0.00 99 1014.5
20260906124237 24 307 3.2 4.8 0.00 0.00 0.00 99 1014.4
20260906123736 23 189 0.0 0.0 0.00 0.00 0.00 99 1014.5
20260906123231 23 93 0.0 0.0 0.00 0.00 0.00 99 1014.4
20260906122730 23 93 0.0 0.0 0.00 0.00 0.00 99 1014.2
20260906122226 23 93 0.0 0.0 0.00 0.00 0.00 99 1014.2
20260906121722 23 93 0.0 0.0 0.00 0.00 0.00 99 1014.1
20260906121218 22 93 0.0 0.0 0.00 0.00 0.00 99 1014.0
20260906120714 22 93 0.0 0.0 0.00 0.00 0.00 99 1014.1
20260906120211 22 93 0.0 0.0 0.00 0.00 0.00 99 1014.0
20260906115706 22 93 0.0 0.0 0.00 0.00 0.00 99 1014.0
20260906115201 22 93 0.0 0.0 0.00 0.00 0.00 99 1014.0
20260906114700 22 93 0.0 0.0 0.00 0.00 0.00 99 1014.0
20260906114155 22 93 0.0 0.0 0.00 0.00 0.00 99 1014.1
20260906113655 22 93 0.0 0.0 0.00 0.00 0.00 99 1014.0
20260906113155 22 93 0.0 0.0 0.00 0.00 0.00 99 1014.2
20260906112654 22 93 0.0 0.0 0.00 0.00 0.00 99 1013.9
20260906112152 22 93 0.0 0.0 0.00 0.00 0.00 99 1013.8
20260906111651 22 93 0.0 0.0 0.00 0.00 0.00 99 1013.9
20260906111145 22 93 0.0 0.0 0.00 0.00 0.00 99 1013.9
20260906110641 22 93 0.0 0.0 0.00 0.00 0.00 99 1013.9
20260906110136 22 93 0.0 0.0 0.00 0.00 0.00 99 1013.8
20260906105630 22 93 0.0 0.0 0.00 0.00 0.00 99 1013.8
20260906105126 22 93 1.6 1.6 0.00 0.00 0.00 99 1013.8
20260906104625 22 93 0.0 0.0 0.00 0.00 0.00 99 1014.0
20260906104119 22 93 0.0 0.0 0.00 0.00 0.00 99 1013.5
20260906103617 22 93 0.0 0.0 0.00 0.00 0.00 99 1013.5
20260906103114 22 93 1.6 1.6 0.00 0.00 0.00 99 1013.6
20260906102614 22 93 0.0 0.0 0.00 0.00 0.00 99 1013.4
20260906102109 22 93 0.0 0.0 0.00 0.00 0.00 99 1013.2
20260906101609 22 93 0.0 0.0 0.00 0.00 0.00 99 1013.5
20260906101108 22 93 0.0 0.0 0.00 0.00 0.00 99 1013.5
20260906100604 22 93 0.0 0.0 0.00 0.00 0.00 99 1013.4
20260906100059 22 93 0.0 0.0 0.00 0.00 0.00 99 1013.5
20260906095559 22 93 0.0 0.0 0.00 0.00 0.00 99 1013.2
20260906095054 22 93 0.0 0.0 0.00 0.00 0.00 99 1013.3
20260906094553 22 93 0.0 0.0 0.00 0.00 0.00 99 1013.3
20260906094049 22 93 0.0 0.0 0.00 0.00 0.00 99 1013.2
20260906093545 22 93 0.0 0.0 0.00 0.00 0.00 99 1013.3
20260906093040 22 93 0.0 0.0 0.00 0.00 0.00 99 1013.2
20260906092540 22 93 0.0 0.0 0.00 0.00 0.00 99 1013.1
20260906092035 22 93 0.0 0.0 0.00 0.00 0.00 99 1013.2
20260906091531 22 93 0.0 0.0 0.00 0.00 0.00 99 1013.0
20260906091028 22 93 0.0 0.0 0.00 0.00 0.00 99 1013.0
20260906090527 22 93 0.0 0.0 0.00 0.00 0.00 99 1013.1
20260906090022 22 93 0.0 0.0 0.00 0.00 0.00 99 1012.8
20260906085521 22 93 0.0 0.0 0.00 0.00 0.00 99 1012.9
20260906085021 22 93 0.0 0.0 0.00 0.00 0.00 99 1012.9
20260906084522 22 93 0.0 0.0 0.00 0.00 0.00 99 1012.9
20260906084020 22 93 0.0 0.0 0.00 0.00 0.00 99 1012.9
20260906083516 22 93 0.0 0.0 0.00 0.00 0.00 99 1012.9
20260906083015 22 93 0.0 0.0 0.00 0.00 0.00 99 1012.7
20260906082511 22 93 0.0 0.0 0.00 0.00 0.00 99 1012.8
20260906082007 22 93 0.0 0.0 0.00 0.00 0.00 99 1012.9
20260906081502 22 93 0.0 0.0 0.00 0.00 0.00 99 1012.8
20260906080957 22 93 0.0 0.0 0.00 0.00 0.00 99 1012.8
20260906080454 22 93 0.0 0.0 0.00 0.00 0.00 99 1012.7
20260906075949 22 93 0.0 0.0 0.00 0.00 0.00 99 1012.8
20260906075444 22 93 0.0 0.0 0.00 0.00 0.00 99 1012.7
20260906074939 22 93 0.0 0.0 0.00 0.00 0.00 99 1012.8
20260906074438 22 93 0.0 0.0 0.00 0.00 0.00 99 1012.7
20260906073937 23 93 0.0 0.0 0.00 0.00 0.00 99 1012.7
20260906073432 23 93 0.0 0.0 0.00 0.00 0.00 99 1012.5
20260906072928 23 93 1.6 1.6 0.00 0.00 0.00 99 1012.6
20260906072423 23 93 0.0 0.0 0.00 0.00 0.00 99 1012.7
20260906071920 23 93 0.0 0.0 0.00 0.00 0.00 99 1012.8
20260906071415 23 93 0.0 0.0 0.00 0.00 0.00 99 1013.0
20260906070911 23 93 0.0 0.0 0.00 0.00 0.00 99 1013.1
20260906070407 23 93 0.0 0.0 0.00 0.00 0.00 99 1013.1
20260906065902 23 93 0.0 0.0 0.00 0.00 0.00 99 1013.0
20260906065356 23 93 0.0 0.0 0.00 0.00 0.00 99 1013.1
20260906064852 23 93 0.0 0.0 0.00 0.00 0.00 99 1013.0
20260906064349 23 93 0.0 0.0 0.00 0.00 0.00 99 1013.0
20260906063848 23 93 0.0 0.0 0.00 0.00 0.00 99 1013.0
20260906063343 23 93 0.0 0.0 0.00 0.00 0.00 98 1012.9
20260906062838 23 93 0.0 0.0 0.00 0.00 0.00 99 1013.1
20260906062338 23 93 0.0 0.0 0.00 0.00 0.00 98 1013.1
20260906061833 23 93 0.0 0.0 0.00 0.00 0.00 98 1013.4
20260906061330 23 93 0.0 0.0 0.00 0.00 0.00 98 1013.1
20260906060824 23 93 0.0 0.0 0.00 0.00 0.00 98 1013.3
20260906060322 23 93 0.0 0.0 0.00 0.00 0.00 98 1013.3
20260906055817 23 93 0.0 0.0 0.00 0.00 0.00 98 1013.5
20260906055313 23 93 0.0 0.0 0.00 0.00 0.00 98 1013.3
20260906054808 23 93 0.0 0.0 0.00 0.00 0.00 98 1013.6
20260906054303 23 93 0.0 0.0 0.00 0.00 0.00 98 1013.5
20260906053800 23 93 0.0 0.0 0.00 0.00 0.00 98 1013.4
20260906053255 23 93 0.0 0.0 0.00 0.00 0.00 98 1013.4
20260906052750 23 93 0.0 0.0 0.00 0.00 0.00 98 1013.5
20260906052246 23 93 0.0 0.0 0.00 0.00 0.00 98 1013.5
20260906051743 23 93 0.0 0.0 0.00 0.00 0.00 98 1013.5
20260906051243 23 93 0.0 0.0 0.00 0.00 0.00 98 1013.6
20260906050738 23 93 1.6 0.0 0.00 0.00 0.00 98 1013.7
20260906050233 23 92 1.6 1.6 0.00 0.00 0.00 98 1013.6
20260906045732 23 93 1.6 0.0 0.00 0.00 0.00 97 1013.8
20260906045227 23 93 0.0 0.0 0.00 0.00 0.00 97 1013.8
20260906044723 23 93 1.6 1.6 0.00 0.00 0.00 97 1013.9
20260906044218 23 146 0.0 0.0 0.00 0.00 0.00 97 1013.8
20260906043714 23 146 0.0 0.0 0.00 0.00 0.00 97 1013.6
20260906043210 24 146 0.0 0.0 0.00 0.00 0.00 97 1013.6
20260906042709 23 146 0.0 0.0 0.00 0.00 0.00 97 1013.6
20260906042203 24 146 0.0 0.0 0.00 0.00 0.00 97 1013.7
20260906041659 24 146 0.0 0.0 0.00 0.00 0.00 97 1013.7
20260906041154 24 146 0.0 0.0 0.00 0.00 0.00 97 1013.7
20260906040649 24 147 0.0 0.0 0.00 0.00 0.00 96 1013.6
20260906040145 24 146 0.0 0.0 0.00 0.00 0.00 96 1013.6
20260906035644 24 146 0.0 0.0 0.00 0.00 0.00 96 1013.8
20260906035140 25 146 0.0 0.0 0.00 0.00 0.00 96 1013.9
20260906034636 25 146 0.0 0.0 0.00 0.00 0.00 96 1013.7
20260906034130 25 146 0.0 0.0 0.00 0.00 0.00 96 1013.8
20260906033626 25 147 0.0 0.0 0.00 0.00 0.00 96 1013.7
20260906033126 25 125 0.0 0.0 0.00 0.00 0.00 96 1013.8
20260906032623 24 135 3.2 3.2 0.00 0.00 0.00 96 1014.0
20260906032122 25 210 0.0 0.0 0.00 0.00 0.00 96 1013.8
20260906031617 25 210 0.0 0.0 0.00 0.00 0.00 96 1014.0
20260906031113 25 210 0.0 0.0 0.00 0.00 0.00 96 1014.0
20260906030612 25 210 0.0 0.0 0.00 0.00 0.00 96 1014.0
20260906030108 25 210 0.0 0.0 0.00 0.00 0.00 96 1014.1
20260906025608 25 210 0.0 0.0 0.00 0.00 0.00 96 1014.1
20260906025106 25 210 0.0 0.0 0.00 0.00 0.00 96 1014.2
20260906024601 25 210 0.0 0.0 0.00 0.00 0.00 95 1014.2
20260906024101 25 210 0.0 0.0 0.00 0.00 0.00 95 1013.9
20260906023557 25 210 0.0 0.0 0.00 0.00 0.00 95 1013.9
20260906023051 25 210 0.0 0.0 0.00 0.00 0.00 95 1014.0
20260906022547 25 210 0.0 0.0 0.00 0.00 0.00 95 1013.8
20260906022042 25 210 0.0 0.0 0.00 0.00 0.00 95 1013.9
20260906021538 25 210 0.0 0.0 0.00 0.00 0.00 95 1013.9
20260906021037 25 210 0.0 0.0 0.00 0.00 0.00 94 1013.6
20260906020536 25 210 0.0 0.0 0.00 0.00 0.00 94 1013.6
20260906020036 25 210 0.0 0.0 0.00 0.00 0.00 94 1013.6
20260906015535 25 210 0.0 0.0 0.00 0.00 0.00 94 1013.6
20260906015030 25 210 0.0 0.0 0.00 0.00 0.00 94 1013.5
20260906014525 25 210 0.0 0.0 0.00 0.00 0.00 93 1013.4
20260906014021 25 211 0.0 0.0 0.00 0.00 0.00 93 1013.2
20260906013516 25 211 0.0 0.0 0.00 0.00 0.00 93 1012.9
20260906013012 25 211 0.0 0.0 0.00 0.00 0.00 92 1012.9
20260906012507 25 211 0.0 0.0 0.00 0.00 0.00 92 1012.5
20260906012006 25 211 0.0 0.0 0.00 0.00 0.00 91 1012.5
20260906011502 25 212 0.0 0.0 0.00 0.00 0.00 91 1012.5
20260906011002 25 263 3.2 3.2 0.00 0.00 0.00 91 1012.4
20260906010457 26 282 1.6 1.6 0.00 0.00 0.00 91 1012.3
20260906005954 26 237 3.2 3.2 0.00 0.00 0.00 90 1012.3
20260906005453 26 249 1.6 1.6 0.00 0.00 0.00 90 1012.4
20260906004951 26 204 1.6 1.6 0.00 0.00 0.00 89 1012.2
20260906004446 26 163 1.6 1.6 0.00 0.00 0.00 89 1012.2
20260906003942 26 340 1.6 1.6 0.00 0.00 0.00 88 1012.1
20260906003442 26 345 0.0 0.0 0.00 0.00 0.00 88 1012.3
20260906002937 26 260 1.6 1.6 0.00 0.00 0.00 87 1012.1
20260906002436 26 270 1.6 1.6 0.00 0.00 0.00 87 1012.4
20260906001932 26 188 0.0 0.0 0.00 0.00 0.00 86 1012.3
20260906001428 26 188 0.0 0.0 0.00 0.00 0.00 87 1012.2
20260906000922 27 187 0.0 0.0 0.00 0.00 0.00 86 1012.4
20260906000418 27 188 0.0 0.0 0.00 0.00 0.00 86 1012.4
20260905235913 27 221 0.0 0.0 0.00 0.00 0.00 84 1012.3
20260905235407 27 221 0.0 0.0 0.00 0.00 0.00 83 1012.5
20260905234902 27 190 1.6 1.6 0.00 0.00 0.00 82 1012.7
20260905234357 28 189 1.6 1.6 0.00 0.00 0.00 82 1012.6
20260905233852 28 180 0.0 0.0 0.00 0.00 0.00 81 1012.7
20260905233347 28 161 0.0 0.0 0.00 0.00 0.00 79 1012.8
20260905232846 28 161 0.0 0.0 0.00 0.00 0.00 78 1012.7
20260905232343 29 161 0.0 0.0 0.00 0.00 0.00 77 1012.6
20260905231838 30 161 0.0 0.0 0.00 0.00 0.00 75 1012.8
20260905231338 30 161 1.6 1.6 0.00 0.00 0.00 71 1012.7
20260905230836 31 161 0.0 0.0 0.00 0.00 0.00 69 1012.6
20260905230333 31 184 1.6 1.6 0.00 0.00 0.00 67 1012.7
20260905225832 32 184 1.6 1.6 0.00 0.00 0.00 64 1012.6
20260905225327 32 141 0.0 0.0 0.00 0.00 0.00 64 1012.7
20260905224821 32 114 1.6 1.6 0.00 0.00 0.00 65 1012.8
20260905224317 32 256 1.6 1.6 0.00 0.00 0.00 63 1012.6
20260905223812 32 219 1.6 1.6 0.00 0.00 0.00 64 1012.6
20260905223310 32 241 4.8 4.8 0.00 0.00 0.00 64 1012.7
20260905222805 32 290 1.6 3.2 0.00 0.00 0.00 65 1012.5
20260905222306 32 243 4.8 4.8 0.00 0.00 0.00 65 1012.5
20260905221800 32 185 3.2 3.2 0.00 0.00 0.00 66 1012.7
20260905221256 32 220 3.2 3.2 0.00 0.00 0.00 66 1012.7
20260905220752 32 245 3.2 3.2 0.00 0.00 0.00 65 1012.7
20260905220248 32 272 6.4 6.4 0.00 0.00 0.00 62 1012.6
20260905215747 32 189 1.6 1.6 0.00 0.00 0.00 66 1012.8
20260905215243 32 162 1.6 1.6 0.00 0.00 0.00 65 1012.8
20260905214738 32 211 1.6 1.6 0.00 0.00 0.00 66 1012.6
20260905214234 31 193 1.6 1.6 0.00 0.00 0.00 68 1012.6
20260905213729 32 336 1.6 1.6 0.00 0.00 0.00 64 1012.7
20260905213225 32 187 1.6 3.2 0.00 0.00 0.00 62 1012.6
20260905212720 32 157 1.6 1.6 0.00 0.00 0.00 62 1012.7
20260905212220 32 283 4.8 6.4 0.00 0.00 0.00 61 1012.9
20260905211720 32 106 8.0 9.7 0.00 0.00 0.00 60 1012.9
20260905211215 32 95 3.2 4.8 0.00 0.00 0.00 60 1013.0
20260905210712 32 195 6.4 6.4 0.00 0.00 0.00 60 1013.0
20260905210211 32 225 3.2 3.2 0.00 0.00 0.00 62 1013.1
20260905205710 32 52 3.2 3.2 0.00 0.00 0.00 62 1013.2
20260905205210 32 153 1.6 1.6 0.00 0.00 0.00 63 1013.1
20260905204710 32 193 1.6 1.6 0.00 0.00 0.00 66 1013.1
20260905204206 31 156 3.2 3.2 0.00 0.00 0.00 66 1012.9
20260905203706 31 94 0.0 0.0 0.00 0.00 0.00 68 1012.9
20260905203201 31 111 0.0 0.0 0.00 0.00 0.00 68 1013.0
20260905202656 31 130 1.6 1.6 0.00 0.00 0.00 68 1012.9
20260905202152 33 129 0.0 0.0 0.00 0.00 0.00 65 1013.1
20260905201648 32 148 1.6 1.6 0.00 0.00 0.00 66 1013.2
20260905201147 32 204 1.6 1.6 0.00 0.00 0.00 63 1013.1
20260905200642 32 147 1.6 6.4 0.00 0.00 0.00 65 1013.3
20260905200138 31 174 1.6 1.6 0.00 0.00 0.00 66 1013.5
20260905195636 31 219 1.6 3.2 0.00 0.00 0.00 67 1013.6
20260905195132 30 166 4.8 4.8 0.00 0.00 0.00 69 1013.6
20260905194632 31 126 4.8 4.8 0.00 0.00 0.00 69 1013.5
20260905194131 31 183 1.6 1.6 0.00 0.00 0.00 72 1013.8
20260905193626 30 119 3.2 4.8 0.00 0.00 0.00 73 1014.1
20260905193121 30 304 3.2 3.2 0.00 0.00 0.00 73 1014.3
20260905192617 29 201 1.6 1.6 0.00 0.00 0.00 74 1014.3
20260905192113 28 183 1.6 1.6 0.00 0.00 0.00 76 1014.3
20260905191612 28 132 0.0 0.0 0.00 0.00 0.00 76 1014.4
20260905191110 28 120 6.4 6.4 0.00 0.00 0.00 75 1014.4
20260905190609 28 164 1.6 1.6 0.00 0.00 0.00 77 1014.4
20260905190103 27 109 0.0 0.0 0.00 0.00 0.00 80 1014.7
20260905185602 28 359 3.2 3.2 0.00 0.00 0.00 79 1014.5
20260905185102 28 83 4.8 4.8 0.00 0.00 0.00 80 1014.8
20260905184556 27 66 3.2 3.2 0.00 0.00 0.00 82 1014.8
20260905184055 27 301 0.0 0.0 0.00 0.00 0.00 83 1014.9
20260905183555 26 138 0.0 0.0 0.00 0.00 0.00 86 1014.8
20260905183051 26 146 3.2 3.2 0.00 0.00 0.00 89 1015.1
20260905182550 25 99 0.0 0.0 0.00 0.00 0.00 91 1015.3
20260905182050 25 87 0.0 0.0 0.00 0.00 0.00 90 1015.4
20260905181545 25 172 3.2 3.2 0.00 0.00 0.00 91 1015.5
20260905181044 25 59 1.6 1.6 0.00 0.00 0.00 93 1015.7
20260905180539 25 58 1.6 1.6 0.00 0.00 0.00 93 1015.7
20260905180034 25 78 1.6 1.6 0.00 0.00 0.00 94 1015.5
20260905175533 25 108 1.6 1.6 0.00 0.00 0.00 94 1015.7
20260905175029 25 166 1.6 1.6 0.00 0.00 0.00 94 1015.8
20260905174524 25 132 0.0 0.0 0.00 0.00 0.00 94 1015.9
20260905174020 25 265 1.6 1.6 0.00 0.00 0.00 95 1015.9
20260905173516 25 71 0.0 1.6 0.00 0.00 0.00 94 1016.0
20260905173011 25 274 3.2 3.2 0.00 0.00 0.00 94 1016.1
20260905172509 25 203 3.2 3.2 0.00 0.00 0.00 94 1016.1
20260905172006 25 108 0.0 1.6 0.00 0.00 0.00 94 1016.5
20260905171502 25 268 3.2 1.6 0.00 0.00 0.00 94 1016.8
20260905170958 25 136 1.6 1.6 0.00 0.00 0.00 94 1016.8
20260905170454 25 269 1.6 1.6 0.00 0.00 0.00 94 1016.9
20260905165954 25 293 3.2 4.8 0.00 0.00 0.00 94 1016.8
20260905165449 25 291 1.6 3.2 0.00 0.00 0.00 94 1016.9
20260905164944 25 76 1.6 1.6 0.00 0.00 0.00 94 1017.0
20260905164443 25 168 1.6 3.2 0.00 0.00 0.00 94 1017.1
20260905163938 25 31 0.0 1.6 0.00 0.00 0.00 94 1017.1
20260905163435 25 226 1.6 1.6 0.00 0.00 0.00 94 1017.0
20260905162931 25 4 3.2 3.2 0.00 0.00 0.00 93 1017.0
20260905162426 25 138 0.0 0.0 0.00 0.00 0.00 93 1017.2
20260905161921 25 94 1.6 1.6 0.00 0.00 0.00 92 1017.2
20260905161420 25 106 0.0 0.0 0.00 0.00 0.00 92 1017.1
20260905160918 25 129 0.0 0.0 0.00 0.00 0.00 92 1017.1
20260905160413 25 112 0.0 0.0 0.00 0.00 0.00 92 1017.3
20260905155912 25 69 1.6 1.6 0.00 0.00 0.00 91 1017.1
20260905155412 25 111 0.0 0.0 0.00 0.00 0.00 91 1017.1
20260905154911 26 51 0.0 0.0 0.00 0.00 0.00 90 1016.9